Regional Weather Roundup
Issued by NWS Little Rock, AR

Home | Current Version | Previous Version | Graphics & Text | Print | Product List | Glossary On
Versions: 1 2 3 4 5 6 7 8 9 10 11 12 13 14 15 16 17 18 19 20 21 22 23 24 25 26 27 28 29 30 31 32 33 34 35 36 37 38 39 40 41 42 43 44 45 46 47 48 49 50
931
ASUS44 KLZK 280012
RWRLZK

WEATHER ROUNDUP FOR ARKANSAS
NATIONAL WEATHER SERVICE LITTLE ROCK AR
700 PM CDT THU APR 27 2017

NOTE: "FAIR" INDICATES FEW OR NO CLOUDS BELOW 12,000 FEET WITH NO
SIGNIFICANT WEATHER AND/OR OBSTRUCTIONS TO VISIBILITY.

ARZ001-003-010-029-280100-
NORTHWEST ARKANSAS

CITY           SKY/WX    TMP DP  RH WIND       PRES   REMARKS
FAYETTEVILLE   CLOUDY    62  44  51 E3        29.70S
6HR MIN TEMP:  59; 6HR MAX TEMP:  66;

FORT SMITH     MOSUNNY   68  52  56 E13       29.65F
6HR MIN TEMP:  62; 6HR MAX TEMP:  71;

HARRISON       MOSUNNY   64  48  56 SE9       29.72S
6HR MIN TEMP:  59; 6HR MAX TEMP:  67;

BENTONVILLE    CLOUDY    63  43  48 CALM      29.71R
6HR MIN TEMP:  59; 6HR MAX TEMP:  66;

ROGERS         CLOUDY    63  46  54 SE5       29.72R
6HR MIN TEMP:  59; 6HR MAX TEMP:  66;

SILOAM SPGS    CLOUDY    61  45  55 SE6       29.70R
6HR MIN TEMP:  59; 6HR MAX TEMP:  66;

HIGHFILL       CLOUDY    63  45  51 E6        29.69R
6HR MIN TEMP:  59; 6HR MAX TEMP:  67;

SPRINGDALE     PTSUNNY   63  43  48 SE6       29.72S
$$

ARZ004-005-016-280100-
NORTH CENTRAL ARKANSAS

CITY           SKY/WX    TMP DP  RH WIND       PRES   REMARKS
BATESVILLE     CLEAR     64  48  55 SE6       29.77S
FLIPPIN        CLEAR    N/A N/A N/A CALM      29.70S
MTN HOME       CLEAR     64  45  49 SE6       29.73S
6HR MIN TEMP:  59; 6HR MAX TEMP:  67;

$$

ARZ040-041-280100-
WEST CENTRAL ARKANSAS

CITY           SKY/WX    TMP DP  RH WIND       PRES   REMARKS
MENA           SUNNY     70  52  52 SE3       29.70R
MOUNT IDA      SUNNY     67  50  54 SE6       29.68F
6HR MIN TEMP:  65; 6HR MAX TEMP:  71;

$$

ARZ009-017-025-026-028-280100-
NORTHEAST ARKANSAS

CITY           SKY/WX    TMP DP  RH WIND       PRES   REMARKS
CORNING        FAIR      64  54  68 S7        29.80S
JONESBORO      CLEAR     65  51  60 S8        29.79F
6HR MIN TEMP:  60; 6HR MAX TEMP:  65;

NEWPORT        CLEAR     65  51  60 SE10      29.78F
6HR MIN TEMP:  60; 6HR MAX TEMP:  68;

WALNUT RIDGE   CLEAR     64  48  55 S12       29.79S
6HR MIN TEMP:  57; 6HR MAX TEMP:  66;

BLYTHEVILLE    CLEAR     64  53  67 SW5       29.81S
6HR MIN TEMP:  58; 6HR MAX TEMP:  65;

$$

ARZ022-023-033-042-044-280100-
CENTRAL ARKANSAS

CITY           SKY/WX    TMP DP  RH WIND       PRES   REMARKS
LITTLE ROCK    PTCLDY    66  51  58 SE16      29.74F
6HR MIN TEMP:  62; 6HR MAX TEMP:  68;

N LITTLE ROCK    N/A     65  52  64 SE10      29.76S
6HR MIN TEMP:  63; 6HR MAX TEMP:  68;

JACKSONVILLE   CLEAR     66  51  57 E8        29.74S
6HR MIN TEMP:  62; 6HR MAX TEMP:  69;

CONWAY           N/A     68  54  60 SE12G17   29.72S
SEARCY         CLEAR     66  52  60 SE8       29.78F
6HR MIN TEMP:  63; 6HR MAX TEMP:  69;

HOT SPRINGS    CLEAR     69  51  52 SE12      29.72F
6HR MIN TEMP:  64; 6HR MAX TEMP:  71;

RUSSELLVILLE   SUNNY     67  49  52 VRB6      29.71S
6HR MIN TEMP:  61; 6HR MAX TEMP:  70;

CLINTON          N/A     66  46  48 CALM      29.74S
$$

ARZ036-280100-
EAST ARKANSAS

CITY           SKY/WX    TMP DP  RH WIND       PRES   REMARKS
WEST MEMPHIS   PTCLDY    64  52  64 S3        29.80S
6HR MIN TEMP:  60; 6HR MAX TEMP:  67;

$$

ARZ050-053-066-070-073-280100-
SOUTHWEST ARKANSAS

CITY           SKY/WX    TMP DP  RH WIND       PRES   REMARKS
ARKADELPHIA    FAIR      70  56  61 MISG      29.72F
6HR MIN TEMP:  63; 6HR MAX TEMP:  72;

CAMDEN         CLEAR     72  50  46 SE8       29.72F
TEXARKANA      SUNNY     69  54  58 SE7       29.69F
6HR MIN TEMP:  65; 6HR MAX TEMP:  72;

EL DORADO      CLEAR     70  52  52 SE12      29.73F
6HR MIN TEMP:  66; 6HR MAX TEMP:  73;

DE QUEEN       SUNNY     69  53  56 SE12G21   29.65F
6HR MIN TEMP:  65; 6HR MAX TEMP:  71;

$$

ARZ056-057-069-280100-
SOUTHEAST ARKANSAS

CITY           SKY/WX    TMP DP  RH WIND       PRES   REMARKS
PINE BLUFF     CLEAR     67  54  63 SE14      29.77S
6HR MIN TEMP:  62; 6HR MAX TEMP:  69;

STUTTGART      CLEAR     66  46  48 SE9       29.78F
6HR MIN TEMP:  61; 6HR MAX TEMP:  68;

MONTICELLO     CLEAR     68  53  58 SE7       29.77F
6HR MIN TEMP:  65; 6HR MAX TEMP:  72;


$$






USA.gov is the U.S. government's official web portal to all federal, state and local government web resources and services.